GW7285 Weather Reports


time (UTC)temp
C
wind
direction
speed
KPH
gust
KPH
rain 1hr
cm
rain 24hr
cm
rain mn
cm
humidity
%
barometer
mb
20260510225154 20 84 0.0 4.8 0.00 0.00 0.00 32 1022.4
20260510224650 20 72 3.2 4.8 0.00 0.00 0.00 34 1022.7
20260510224146 20 111 0.0 3.2 0.00 0.00 0.00 33 1022.5
20260510223644 20 125 1.6 3.2 0.00 0.00 0.00 35 1022.6
20260510223141 20 139 0.0 4.8 0.00 0.00 0.00 34 1022.6
20260510222638 20 115 0.0 4.8 0.00 0.00 0.00 35 1022.5
20260510222135 20 154 3.2 4.8 0.00 0.00 0.00 35 1022.8
20260510221630 20 198 6.4 6.4 0.00 0.00 0.00 31 1022.9
20260510221127 20 349 3.2 6.4 0.00 0.00 0.00 35 1022.6
20260510220624 20 132 1.6 1.6 0.00 0.00 0.00 35 1022.7
20260510220120 20 130 0.0 4.8 0.00 0.00 0.00 32 1022.5
20260510215617 20 109 4.8 9.7 0.00 0.00 0.00 32 1022.5
20260510215116 20 126 0.0 3.2 0.00 0.00 0.00 33 1022.6
20260510214611 20 128 1.6 9.7 0.00 0.00 0.00 35 1022.4
20260510214108 20 134 3.2 4.8 0.00 0.00 0.00 34 1022.5
20260510213605 20 91 6.4 9.7 0.00 0.00 0.00 31 1022.4
20260510213101 20 66 0.0 9.7 0.00 0.00 0.00 34 1022.4
20260510212558 20 41 3.2 3.2 0.00 0.00 0.00 38 1022.2
20260510212056 20 80 0.0 9.7 0.00 0.00 0.00 34 1022.5
20260510211553 20 167 3.2 6.4 0.00 0.00 0.00 35 1022.5
20260510211052 20 116 0.0 6.4 0.00 0.00 0.00 34 1022.4
20260510210549 20 114 0.0 4.8 0.00 0.00 0.00 39 1022.6
20260510210044 19 74 1.6 4.8 0.00 0.00 0.00 36 1022.7
20260510205543 20 64 0.0 9.7 0.00 0.00 0.00 41 1022.5
20260510205039 20 101 1.6 9.7 0.00 0.00 0.00 37 1022.6
20260510204536 21 128 1.6 4.8 0.00 0.00 0.00 38 1022.8
20260510204033 20 104 0.0 1.6 0.00 0.00 0.00 34 1022.8
20260510203530 19 97 1.6 3.2 0.00 0.00 0.00 42 1022.9
20260510203027 18 125 0.0 4.8 0.00 0.00 0.00 38 1022.8
20260510202526 19 142 1.6 1.6 0.00 0.00 0.00 37 1022.8
20260510202022 20 139 8.0 11.3 0.00 0.00 0.00 34 1022.8
20260510201520 20 121 0.0 6.4 0.00 0.00 0.00 36 1023.1
20260510201016 20 138 0.0 4.8 0.00 0.00 0.00 36 1023.0
20260510200512 20 115 0.0 1.6 0.00 0.00 0.00 40 1022.9
20260510200010 19 118 0.0 3.2 0.00 0.00 0.00 39 1023.0
20260510195508 18 189 4.8 4.8 0.00 0.00 0.00 35 1023.0
20260510195003 18 109 1.6 3.2 0.00 0.00 0.00 39 1023.0
20260510194459 18 121 0.0 3.2 0.00 0.00 0.00 41 1023.2
20260510193955 18 93 1.6 9.7 0.00 0.00 0.00 39 1023.3
20260510193449 19 81 3.2 4.8 0.00 0.00 0.00 38 1023.3
20260510192945 19 211 4.8 4.8 0.00 0.00 0.00 38 1023.4
20260510192440 19 74 0.0 3.2 0.00 0.00 0.00 43 1023.4
20260510191936 19 122 3.2 4.8 0.00 0.00 0.00 34 1023.3
20260510191432 19 92 0.0 3.2 0.00 0.00 0.00 40 1023.5
20260510190930 18 123 1.6 3.2 0.00 0.00 0.00 39 1023.7
20260510190427 18 134 0.0 1.6 0.00 0.00 0.00 42 1023.5
20260510185923 18 126 0.0 0.0 0.00 0.00 0.00 43 1023.4
20260510185421 18 148 0.0 4.8 0.00 0.00 0.00 38 1023.2
20260510184918 18 118 0.0 4.8 0.00 0.00 0.00 35 1023.2
20260510184415 19 61 0.0 6.4 0.00 0.00 0.00 37 1023.4
20260510183914 18 56 0.0 1.6 0.00 0.00 0.00 41 1023.3
20260510183412 18 111 3.2 3.2 0.00 0.00 0.00 35 1023.1
20260510182907 18 114 0.0 1.6 0.00 0.00 0.00 35 1023.2
20260510182404 18 121 3.2 6.4 0.00 0.00 0.00 38 1023.2
20260510181859 18 68 6.4 12.9 0.00 0.00 0.00 33 1023.2
20260510181357 18 162 1.6 3.2 0.00 0.00 0.00 36 1023.1
20260510180853 18 120 3.2 3.2 0.00 0.00 0.00 33 1023.1
20260510180350 18 90 0.0 4.8 0.00 0.00 0.00 38 1023.4
20260510175847 18 131 0.0 1.6 0.00 0.00 0.00 30 1023.4
20260510175342 18 101 0.0 4.8 0.00 0.00 0.00 38 1023.7
20260510174839 18 243 1.6 4.8 0.00 0.00 0.00 37 1023.6
20260510174337 18 76 3.2 6.4 0.00 0.00 0.00 33 1023.2
20260510173833 18 125 0.0 1.6 0.00 0.00 0.00 36 1023.3
20260510173329 18 122 0.0 1.6 0.00 0.00 0.00 34 1023.5
20260510172825 18 51 0.0 4.8 0.00 0.00 0.00 38 1023.4
20260510172321 18 165 4.8 6.4 0.00 0.00 0.00 37 1023.3
20260510171818 18 105 6.4 9.7 0.00 0.00 0.00 34 1023.4
20260510171315 18 143 1.6 1.6 0.00 0.00 0.00 33 1023.2
20260510170812 18 275 3.2 6.4 0.00 0.00 0.00 31 1023.5
20260510170308 19 33 1.6 3.2 0.00 0.00 0.00 35 1023.3
20260510165808 18 77 0.0 11.3 0.00 0.00 0.00 38 1023.1
20260510165307 18 97 1.6 3.2 0.00 0.00 0.00 35 1023.4
20260510164803 18 4 4.8 6.4 0.00 0.00 0.00 37 1023.2
20260510164301 18 110 4.8 11.3 0.00 0.00 0.00 36 1023.0
20260510163800 18 40 3.2 4.8 0.00 0.00 0.00 36 1022.9
20260510163257 16 199 1.6 3.2 0.00 0.00 0.00 43 1022.9
20260510162756 17 308 3.2 4.8 0.00 0.00 0.00 42 1023.0
20260510162254 17 106 1.6 4.8 0.00 0.00 0.00 36 1022.9
20260510161749 17 125 1.6 3.2 0.00 0.00 0.00 40 1022.9
20260510161245 17 37 1.6 6.4 0.00 0.00 0.00 41 1023.0
20260510160743 17 109 1.6 3.2 0.00 0.00 0.00 42 1023.1
20260510160238 17 71 3.2 6.4 0.00 0.00 0.00 37 1023.0
20260510155734 16 98 1.6 3.2 0.00 0.00 0.00 37 1023.2
20260510155230 16 115 0.0 4.8 0.00 0.00 0.00 38 1022.9
20260510154726 17 105 0.0 3.2 0.00 0.00 0.00 39 1023.0
20260510154222 16 114 0.0 3.2 0.00 0.00 0.00 39 1022.9
20260510153718 17 115 8.0 12.9 0.00 0.00 0.00 36 1022.9
20260510153214 17 123 0.0 3.2 0.00 0.00 0.00 40 1022.9
20260510152710 17 90 0.0 3.2 0.00 0.00 0.00 45 1022.9
20260510152206 16 113 4.8 9.7 0.00 0.00 0.00 36 1022.9
20260510151703 16 94 0.0 11.3 0.00 0.00 0.00 37 1022.6
20260510151202 16 142 1.6 6.4 0.00 0.00 0.00 38 1022.5
20260510150657 16 93 4.8 11.3 0.00 0.00 0.00 35 1022.5
20260510150152 16 149 1.6 9.7 0.00 0.00 0.00 39 1022.6
20260510145649 16 28 0.0 6.4 0.00 0.00 0.00 42 1022.3
20260510145146 16 56 1.6 6.4 0.00 0.00 0.00 38 1022.5
20260510144641 15 80 1.6 4.8 0.00 0.00 0.00 39 1022.4
20260510144138 15 94 3.2 6.4 0.00 0.00 0.00 42 1022.3
20260510143633 15 124 3.2 9.7 0.00 0.00 0.00 38 1022.3
20260510143131 15 121 0.0 3.2 0.00 0.00 0.00 42 1022.5
20260510142627 15 116 3.2 11.3 0.00 0.00 0.00 39 1022.5
20260510142123 14 113 0.0 6.4 0.00 0.00 0.00 40 1022.7
20260510141620 14 129 1.6 9.7 0.00 0.00 0.00 40 1022.5
20260510141119 15 107 1.6 6.4 0.00 0.00 0.00 40 1022.6
20260510140615 15 114 3.2 4.8 0.00 0.00 0.00 40 1022.6
20260510140114 15 112 1.6 6.4 0.00 0.00 0.00 39 1022.7
20260510135609 15 139 1.6 4.8 0.00 0.00 0.00 41 1022.5
20260510135106 15 123 4.8 9.7 0.00 0.00 0.00 39 1022.4
20260510134603 14 63 0.0 4.8 0.00 0.00 0.00 44 1022.2
20260510134100 14 128 4.8 4.8 0.00 0.00 0.00 41 1022.4
20260510133556 13 114 0.0 3.2 0.00 0.00 0.00 46 1022.3
20260510133052 13 114 0.0 1.6 0.00 0.00 0.00 47 1022.2
20260510132549 13 106 0.0 3.2 0.00 0.00 0.00 46 1022.2
20260510132045 13 122 0.0 0.0 0.00 0.00 0.00 46 1022.3
20260510131543 13 116 0.0 1.6 0.00 0.00 0.00 46 1022.4
20260510131040 13 130 1.6 4.8 0.00 0.00 0.00 44 1022.0
20260510130536 13 116 1.6 4.8 0.00 0.00 0.00 48 1021.9
20260510130034 13 97 0.0 3.2 0.00 0.00 0.00 44 1021.6
20260510125530 13 110 0.0 1.6 0.00 0.00 0.00 46 1021.7
20260510125027 13 97 1.6 4.8 0.00 0.00 0.00 45 1021.6
20260510124523 13 117 0.0 3.2 0.00 0.00 0.00 44 1021.4
20260510124021 13 112 0.0 1.6 0.00 0.00 0.00 46 1021.2
20260510123516 13 94 1.6 1.6 0.00 0.00 0.00 44 1021.1
20260510123012 13 93 3.2 3.2 0.00 0.00 0.00 43 1020.8
20260510122508 13 97 0.0 3.2 0.00 0.00 0.00 45 1020.9
20260510122004 13 38 0.0 6.4 0.00 0.00 0.00 46 1020.8
20260510121501 13 83 0.0 1.6 0.00 0.00 0.00 45 1020.8
20260510120959 13 87 1.6 1.6 0.00 0.00 0.00 45 1020.5
20260510120456 13 147 1.6 3.2 0.00 0.00 0.00 46 1020.0
20260510115951 13 123 1.6 11.3 0.00 0.00 0.00 43 1020.1
20260510115449 13 106 6.4 11.3 0.00 0.00 0.00 42 1020.1
20260510114944 13 114 0.0 4.8 0.00 0.00 0.00 45 1019.9
20260510114442 13 114 0.0 4.8 0.00 0.00 0.00 45 1019.8
20260510113937 13 104 0.0 1.6 0.00 0.00 0.00 44 1019.8
20260510113432 13 137 1.6 11.3 0.00 0.00 0.00 42 1019.8
20260510112931 13 74 3.2 4.8 0.00 0.00 0.00 42 1019.8
20260510112428 13 62 0.0 1.6 0.00 0.00 0.00 43 1019.6
20260510111924 13 99 0.0 1.6 0.00 0.00 0.00 43 1019.5
20260510111420 13 62 1.6 9.7 0.00 0.00 0.00 43 1019.5
20260510110915 13 78 1.6 6.4 0.00 0.00 0.00 42 1019.4
20260510110412 13 115 0.0 6.4 0.00 0.00 0.00 45 1019.4
20260510105908 13 78 0.0 3.2 0.00 0.00 0.00 44 1019.5
20260510105408 13 125 1.6 3.2 0.00 0.00 0.00 45 1019.4
20260510104904 13 58 4.8 6.4 0.00 0.00 0.00 45 1019.4
20260510104402 13 149 4.8 6.4 0.00 0.00 0.00 46 1019.2
20260510103858 14 29 1.6 3.2 0.00 0.00 0.00 46 1019.3
20260510103355 14 59 0.0 3.2 0.00 0.00 0.00 47 1019.2
20260510102851 14 96 0.0 3.2 0.00 0.00 0.00 46 1019.2
20260510102346 14 94 1.6 3.2 0.00 0.00 0.00 44 1019.1
20260510101844 14 77 1.6 3.2 0.00 0.00 0.00 45 1018.9
20260510101342 14 67 0.0 3.2 0.00 0.00 0.00 45 1018.9
20260510100838 14 117 0.0 1.6 0.00 0.00 0.00 47 1018.6
20260510100336 14 90 0.0 1.6 0.00 0.00 0.00 48 1018.6
20260510095832 14 136 0.0 1.6 0.00 0.00 0.00 47 1018.6
20260510095327 15 55 1.6 4.8 0.00 0.00 0.00 47 1018.3
20260510094826 15 110 0.0 4.8 0.00 0.00 0.00 47 1018.3
20260510094322 15 113 0.0 3.2 0.00 0.00 0.00 48 1018.4
20260510093818 15 173 3.2 4.8 0.00 0.00 0.00 47 1018.3
20260510093315 15 112 1.6 6.4 0.00 0.00 0.00 47 1018.2
20260510092811 15 107 0.0 1.6 0.00 0.00 0.00 50 1018.2
20260510092307 15 60 0.0 3.2 0.00 0.00 0.00 51 1018.1
20260510091803 15 111 0.0 3.2 0.00 0.00 0.00 52 1018.2
20260510091301 15 113 0.0 3.2 0.00 0.00 0.00 52 1018.2
20260510090756 15 109 0.0 0.0 0.00 0.00 0.00 51 1018.2
20260510090253 15 121 1.6 3.2 0.00 0.00 0.00 52 1017.9
20260510085749 15 106 3.2 4.8 0.00 0.00 0.00 52 1017.9
20260510085243 15 133 0.0 4.8 0.00 0.00 0.00 51 1017.5
20260510084739 15 134 0.0 11.3 0.00 0.00 0.00 53 1017.7
20260510084237 15 130 0.0 1.6 0.00 0.00 0.00 57 1017.6
20260510083733 15 142 0.0 3.2 0.00 0.00 0.00 58 1017.2
20260510083230 15 98 0.0 1.6 0.00 0.00 0.00 58 1017.3
20260510082725 15 108 0.0 4.8 0.00 0.00 0.00 58 1017.2
20260510082223 15 109 0.0 1.6 0.00 0.00 0.00 59 1017.5
20260510081721 16 111 0.0 1.6 0.00 0.00 0.00 60 1017.2
20260510081218 16 127 0.0 3.2 0.00 0.00 0.00 60 1017.4
20260510080713 16 117 0.0 3.2 0.00 0.00 0.00 60 1017.2
20260510080209 16 102 0.0 3.2 0.00 0.00 0.00 60 1016.8
20260510075706 16 128 0.0 3.2 0.00 0.00 0.00 59 1016.7
20260510075204 16 98 0.0 1.6 0.00 0.00 0.00 60 1016.9
20260510074701 16 114 0.0 0.0 0.00 0.00 0.00 57 1017.0
20260510074156 16 100 0.0 0.0 0.00 0.00 0.00 57 1017.0
20260510073654 16 107 0.0 0.0 0.00 0.00 0.00 57 1016.9
20260510073149 17 106 0.0 3.2 0.00 0.00 0.00 57 1017.1
20260510072645 16 101 0.0 0.0 0.00 0.00 0.00 57 1016.7
20260510072142 16 274 1.6 9.7 0.00 0.00 0.00 61 1016.7
20260510071638 15 136 0.0 0.0 0.00 0.00 0.00 63 1016.7
20260510071136 15 113 0.0 0.0 0.00 0.00 0.00 64 1016.6
20260510070633 15 113 0.0 0.0 0.00 0.00 0.00 64 1016.5
20260510070131 15 108 0.0 0.0 0.00 0.00 0.00 64 1016.4
20260510065626 15 107 0.0 0.0 0.00 0.00 0.00 64 1016.3
20260510065122 15 107 0.0 0.0 0.00 0.00 0.00 63 1016.1
20260510064618 16 107 0.0 0.0 0.00 0.00 0.00 61 1016.5
20260510064115 16 107 0.0 0.0 0.00 0.00 0.00 59 1016.5
20260510063612 16 110 0.0 0.0 0.00 0.00 0.00 56 1016.5
20260510063109 17 118 0.0 0.0 0.00 0.00 0.00 56 1016.4
20260510062605 17 127 0.0 0.0 0.00 0.00 0.00 53 1016.1
20260510062101 18 108 0.0 0.0 0.00 0.00 0.00 51 1015.8
20260510061557 18 92 3.2 4.8 0.00 0.00 0.00 50 1015.7
20260510061054 18 115 0.0 1.6 0.00 0.00 0.00 50 1015.8
20260510060550 18 114 3.2 9.7 0.00 0.00 0.00 49 1016.2
20260510060046 18 140 0.0 11.3 0.00 0.00 0.00 50 1016.0
20260510055543 19 61 1.6 6.4 0.00 0.00 0.00 48 1016.1
20260510055041 19 109 0.0 1.6 0.00 0.00 0.00 49 1016.0
20260510054537 19 107 3.2 9.7 0.00 0.00 0.00 47 1015.9
20260510054032 19 139 4.8 11.3 0.00 0.00 0.00 46 1015.9
20260510053527 19 137 1.6 3.2 0.00 0.00 0.00 47 1015.6
20260510053024 19 65 0.0 1.6 0.00 0.00 0.00 50 1015.8
20260510052520 20 118 0.0 1.6 0.00 0.00 0.00 49 1016.2
20260510052016 20 106 1.6 6.4 0.00 0.00 0.00 46 1015.8
20260510051512 20 87 0.0 1.6 0.00 0.00 0.00 47 1015.7
20260510051008 19 47 0.0 3.2 0.00 0.00 0.00 50 1015.7
20260510050506 19 151 1.6 3.2 0.00 0.00 0.00 50 1015.7
20260510050002 20 193 1.6 4.8 0.00 0.03 0.03 49 1015.5
20260510045500 19 118 0.0 0.0 0.00 0.03 0.03 52 1014.9
20260510044955 19 110 0.0 3.2 0.00 0.03 0.03 53 1014.5
20260510044453 19 125 0.0 3.2 0.00 0.03 0.03 54 1014.5
20260510043950 19 113 0.0 3.2 0.00 0.03 0.03 56 1014.3
20260510043445 18 74 1.6 1.6 0.00 0.03 0.03 59 1014.0
20260510042944 18 111 0.0 0.0 0.00 0.03 0.03 60 1014.0
20260510042439 18 120 0.0 0.0 0.00 0.03 0.03 60 1013.7
20260510041935 19 108 0.0 0.0 0.00 0.03 0.03 59 1013.8
20260510041433 19 107 0.0 0.0 0.00 0.03 0.03 58 1013.6
20260510040931 19 113 0.0 0.0 0.00 0.03 0.03 57 1013.6
20260510040427 19 114 0.0 0.0 0.00 0.03 0.03 56 1013.6
20260510035922 20 111 0.0 0.0 0.00 0.03 0.03 56 1013.3
20260510035419 20 109 0.0 0.0 0.00 0.03 0.03 55 1013.5
20260510034919 20 125 0.0 0.0 0.00 0.03 0.03 54 1013.3
20260510034418 20 113 0.0 0.0 0.00 0.03 0.03 55 1013.3
20260510033913 20 118 0.0 1.6 0.00 0.03 0.03 54 1013.3
20260510033410 20 122 0.0 1.6 0.00 0.03 0.03 52 1013.2
20260510032907 20 105 0.0 3.2 0.00 0.03 0.03 53 1013.2
20260510032404 19 111 0.0 0.0 0.00 0.03 0.03 57 1013.4
20260510031859 19 122 0.0 0.0 0.00 0.03 0.03 60 1013.2
20260510031354 19 103 0.0 0.0 0.00 0.03 0.03 60 1013.3
20260510030855 19 122 0.0 0.0 0.00 0.03 0.03 58 1013.3
20260510030351 19 122 0.0 0.0 0.00 0.03 0.03 58 1013.2
20260510025849 20 122 0.0 0.0 0.00 0.03 0.03 58 1013.3
20260510025346 20 123 0.0 0.0 0.00 0.03 0.03 57 1013.2
20260510024843 20 123 0.0 0.0 0.00 0.03 0.03 56 1013.4
20260510024340 20 123 0.0 0.0 0.00 0.03 0.03 56 1013.2
20260510023836 20 107 0.0 0.0 0.00 0.03 0.03 54 1013.3
20260510023333 20 123 0.0 0.0 0.00 0.03 0.03 54 1013.0
20260510022830 20 114 0.0 0.0 0.00 0.03 0.03 54 1012.3
20260510022329 20 122 0.0 0.0 0.00 0.03 0.03 54 1012.4
20260510021828 20 116 0.0 0.0 0.00 0.03 0.03 53 1012.1
20260510021326 20 116 0.0 0.0 0.00 0.03 0.03 52 1012.1
20260510020822 20 108 0.0 0.0 0.00 0.03 0.03 52 1012.0
20260510020317 20 91 0.0 0.0 0.00 0.03 0.03 51 1012.1
20260510015813 21 108 0.0 1.6 0.00 0.03 0.03 50 1011.9
20260510015309 21 111 0.0 1.6 0.00 0.03 0.03 49 1011.6
20260510014805 21 94 0.0 3.2 0.00 0.03 0.03 49 1011.7
20260510014302 21 108 0.0 3.2 0.00 0.03 0.03 49 1011.6
20260510013758 21 99 0.0 4.8 0.00 0.03 0.03 50 1011.6
20260510013254 21 122 0.0 1.6 0.00 0.03 0.03 49 1011.6
20260510012749 21 124 0.0 1.6 0.00 0.03 0.03 49 1011.6
20260510012244 21 79 0.0 3.2 0.00 0.03 0.03 48 1011.4
20260510011743 21 111 0.0 3.2 0.00 0.03 0.03 49 1011.0
20260510011239 21 116 0.0 0.0 0.00 0.03 0.03 49 1011.2
20260510010736 21 117 0.0 0.0 0.00 0.03 0.03 49 1011.1
20260510010232 21 114 0.0 0.0 0.00 0.03 0.03 49 1011.0
20260510005730 22 67 0.0 0.0 0.00 0.03 0.03 48 1010.7
20260510005226 22 112 0.0 1.6 0.00 0.03 0.03 47 1011.1
20260510004724 22 126 0.0 1.6 0.00 0.03 0.03 46 1010.8
20260510004222 22 65 3.2 6.4 0.00 0.03 0.03 45 1010.8
20260510003719 23 69 1.6 4.8 0.00 0.03 0.03 45 1010.6
20260510003215 23 107 0.0 1.6 0.00 0.03 0.03 45 1010.6
20260510002714 23 87 0.0 3.2 0.00 0.03 0.03 45 1010.5
20260510002211 23 139 0.0 3.2 0.00 0.03 0.03 43 1010.5
20260510001708 25 119 0.0 0.0 0.00 0.03 0.03 45 1010.5
20260510001207 25 118 0.0 0.0 0.00 0.03 0.03 44 1010.2
20260510000702 24 215 3.2 3.2 0.00 0.03 0.03 43 1010.0
20260510000159 24 165 3.2 6.4 0.00 0.03 0.03 41 1010.1
20260509235656 25 59 0.0 11.3 0.00 0.03 0.03 42 1010.2
20260509235152 25 96 1.6 3.2 0.00 0.03 0.03 41 1010.0
20260509234649 25 115 3.2 9.7 0.00 0.03 0.03 40 1010.0
20260509234146 25 119 0.0 1.6 0.00 0.03 0.03 39 1009.9
20260509233644 25 124 0.0 16.1 0.00 0.03 0.03 39 1009.9
20260509233141 26 357 1.6 3.2 0.00 0.03 0.03 38 1009.7
20260509232637 25 101 0.0 12.9 0.00 0.03 0.03 38 1009.6
20260509232134 25 291 1.6 3.2 0.00 0.03 0.03 39 1009.8
20260509231630 25 305 3.2 3.2 0.00 0.03 0.03 39 1009.7
20260509231128 26 115 0.0 4.8 0.00 0.03 0.03 38 1009.6
20260509230625 26 239 3.2 4.8 0.00 0.03 0.03 38 1009.5
20260509230122 26 117 1.6 1.6 0.00 0.03 0.03 37 1009.5
20260509225618 26 279 3.2 9.7 0.00 0.03 0.03 36 1009.6